IT9NKT-WX Weather Reports


Display with metric or nautical units.
time (UTC)temp
F
wind
direction
speed
MPH
gust
MPH
rain 1hr
in
rain 24hr
in
rain mn
in
humidity
%
barometer
mb
20260510103504 75 114 2.0 6.0 0.00 0.04 0.04 51 1017.1
20260510103003 74 143 2.0 6.0 0.00 0.04 0.04 51 1016.9
20260510102718 74 168 2.0 6.0 0.00 0.04 0.04 50 1017.3
20260510102003 74 193 3.0 8.0 0.00 0.04 0.04 49 1017.3
20260510101504 74 183 3.0 8.0 0.00 0.04 0.04 51 1017.6
20260510101003 74 154 2.0 6.0 0.00 0.04 0.04 50 1017.4
20260510100503 76 137 2.0 4.0 0.00 0.04 0.04 49 1017.3
20260510100003 73 75 1.0 4.0 0.00 0.04 0.04 53 1017.2
20260510095504 74 100 1.0 5.0 0.00 0.04 0.04 53 1017.2
20260510095004 73 110 2.0 7.0 0.00 0.04 0.04 52 1017.1
20260510094504 73 100 2.0 7.0 0.00 0.04 0.04 52 1017.3
20260510094004 74 84 2.0 7.0 0.00 0.04 0.04 53 1017.3
20260510093503 73 100 2.0 7.0 0.00 0.04 0.04 54 1017.2
20260510093004 75 123 1.0 4.0 0.00 0.04 0.04 51 1017.1
20260510092504 73 106 2.0 7.0 0.00 0.04 0.04 53 1017.2
20260510092004 72 113 2.0 7.0 0.00 0.04 0.04 54 1017.1
20260510091504 72 110 1.0 6.0 0.00 0.04 0.04 53 1017.3
20260510091212 72 98 1.0 6.0 0.00 0.04 0.04 54 1017.2
20260510090503 71 106 1.0 8.0 0.00 0.04 0.04 56 1017.0
20260510090213 72 117 1.0 8.0 0.00 0.04 0.04 56 1017.1
20260510085504 73 79 1.0 8.0 0.00 0.04 0.04 55 1017.2
20260510085003 71 92 2.0 6.0 0.00 0.04 0.04 57 1017.0
20260510084503 72 116 2.0 6.0 0.00 0.04 0.04 58 1017.1
20260510084003 71 101 1.0 6.0 0.00 0.04 0.04 59 1017.2
20260510083504 70 82 1.0 6.0 0.00 0.04 0.04 60 1017.2
20260510083003 71 88 1.0 4.0 0.00 0.04 0.04 61 1017.2
20260510082714 71 95 1.0 3.0 0.00 0.04 0.04 60 1017.3
20260510082004 69 66 1.0 4.0 0.00 0.04 0.04 62 1017.3
20260510081504 69 74 1.0 4.0 0.00 0.04 0.04 63 1017.2
20260510081213 70 107 1.0 3.0 0.00 0.04 0.04 61 1017.3
20260510080504 70 128 2.0 7.0 0.00 0.04 0.04 62 1017.0
20260510080004 70 110 2.0 7.0 0.00 0.04 0.04 63 1017.0
20260510075503 69 94 2.0 7.0 0.00 0.04 0.04 64 1017.1
20260510075004 68 94 2.0 7.0 0.00 0.04 0.04 64 1016.9
20260510074504 69 95 2.0 7.0 0.00 0.04 0.04 66 1017.0
20260510074003 68 101 2.0 9.0 0.00 0.04 0.04 65 1017.1
20260510073503 68 102 2.0 9.0 0.00 0.04 0.04 66 1016.9
20260510073004 68 90 2.0 6.0 0.00 0.04 0.04 67 1017.0
20260510072715 67 95 2.0 8.0 0.00 0.04 0.04 69 1016.7
20260510072213 67 82 2.0 8.0 0.00 0.04 0.04 69 1016.9
20260510071716 67 93 2.0 6.0 0.00 0.04 0.04 69 1017.3
20260510071214 67 99 3.0 9.0 0.00 0.04 0.04 71 1017.0
20260510070504 67 88 2.0 8.0 0.00 0.04 0.04 73 1017.2
20260510070004 67 96 3.0 6.0 0.00 0.04 0.04 75 1017.0
20260510065503 67 91 2.0 9.0 0.00 0.04 0.04 76 1017.2
20260510065004 67 67 2.0 9.0 0.00 0.04 0.04 77 1017.1
20260510064503 66 70 3.0 7.0 0.00 0.04 0.04 80 1017.1
20260510064003 66 94 3.0 9.0 0.00 0.04 0.04 80 1017.2
20260510063504 66 88 3.0 9.0 0.00 0.04 0.04 80 1017.1
20260510063004 66 91 3.0 9.0 0.00 0.04 0.04 80 1017.0
20260510062504 66 109 3.0 9.0 0.00 0.04 0.04 81 1017.0
20260510062003 66 105 3.0 8.0 0.00 0.04 0.04 80 1017.1
20260510061504 66 114 2.0 7.0 0.00 0.04 0.04 80 1017.2
20260510061003 66 144 2.0 6.0 0.00 0.04 0.04 81 1017.3
20260510060504 66 134 1.0 6.0 0.00 0.04 0.04 81 1017.2
20260510060005 66 108 1.0 4.0 0.00 0.04 0.04 82 1016.9
20260510055503 66 91 1.0 4.0 0.00 0.04 0.04 81 1016.8
20260510055216 66 94 1.0 4.0 0.00 0.04 0.04 81 1016.8
20260510054714 65 124 1.0 4.0 0.00 0.04 0.04 82 1016.6
20260510054004 65 141 1.0 3.0 0.00 0.04 0.04 83 1016.9
20260510053504 65 116 1.0 3.0 0.00 0.04 0.04 83 1016.4
20260510053213 64 111 1.0 3.0 0.01 0.04 0.04 84 1016.4
20260510052716 64 97 1.0 3.0 0.01 0.04 0.04 85 1016.4
20260510052003 64 74 1.0 3.0 0.01 0.04 0.04 86 1016.3
20260510051504 64 91 0.0 2.0 0.01 0.04 0.04 86 1016.4
20260510051003 63 128 1.0 2.0 0.01 0.04 0.04 85 1016.8
20260510050503 63 129 1.0 4.0 0.01 0.04 0.04 86 1016.9
20260510050003 63 128 1.0 4.0 0.01 0.04 0.04 85 1016.7
20260510045504 63 132 1.0 3.0 0.01 0.04 0.04 86 1016.6
20260510045004 63 143 1.0 3.0 0.01 0.04 0.04 85 1016.8
20260510044503 63 169 1.0 4.0 0.01 0.04 0.04 85 1016.6
20260510044003 63 154 1.0 4.0 0.01 0.04 0.04 85 1016.6
20260510043503 64 102 1.0 4.0 0.01 0.04 0.04 84 1016.4
20260510043004 64 79 2.0 4.0 0.00 0.03 0.03 83 1016.3
20260510042503 64 42 1.0 5.0 0.00 0.03 0.03 82 1016.3
20260510042004 64 55 2.0 7.0 0.00 0.03 0.03 82 1016.5
20260510041504 64 77 2.0 7.0 0.01 0.03 0.03 82 1016.1
20260510041004 64 70 2.0 7.0 0.01 0.03 0.03 83 1016.3
20260510040503 64 64 2.0 7.0 0.01 0.03 0.03 82 1016.2
20260510040004 64 58 2.0 4.0 0.01 0.03 0.03 82 1016.1
20260510035504 63 48 2.0 6.0 0.01 0.03 0.03 84 1016.1
20260510035003 63 42 1.0 6.0 0.02 0.03 0.03 84 1016.0
20260510034503 63 34 2.0 4.0 0.02 0.03 0.03 86 1016.0
20260510034004 62 37 2.0 8.0 0.02 0.03 0.03 87 1016.1
20260510033716 62 39 2.0 8.0 0.02 0.03 0.03 88 1016.1
20260510033003 62 32 2.0 7.0 0.02 0.03 0.03 89 1016.2
20260510032503 62 35 1.0 4.0 0.02 0.03 0.03 88 1016.8
20260510032003 62 136 0.0 2.0 0.02 0.03 0.03 88 1017.4
20260510031503 62 302 1.0 3.0 0.02 0.02 0.02 87 1018.0
20260510031003 62 340 1.0 3.0 0.02 0.02 0.02 87 1018.3
20260510030503 62 37 0.0 3.0 0.02 0.02 0.02 86 1018.2
20260510030217 62 170 0.0 1.0 0.02 0.02 0.02 86 1018.2
20260510025504 62 204 0.0 1.0 0.02 0.02 0.02 86 1018.2
20260510025003 62 216 0.0 1.0 0.01 0.01 0.01 85 1018.7
20260510024504 62 234 0.0 1.0 0.01 0.01 0.01 85 1018.4
20260510024003 62 222 0.0 1.0 0.01 0.01 0.01 85 1018.5
20260510023717 62 250 1.0 3.0 0.01 0.01 0.01 85 1018.1
20260510023004 62 15 2.0 7.0 0.01 0.01 0.01 85 1018.2
20260510022718 62 44 2.0 7.0 0.01 0.01 0.01 84 1018.0
20260510022003 63 38 1.0 4.0 0.01 0.01 0.01 84 1017.7
20260510021504 63 3 1.0 3.0 0.00 0.00 0.00 83 1018.3
20260510021003 64 41 0.0 2.0 0.00 0.00 0.00 81 1018.7
20260510020715 64 117 0.0 2.0 0.00 0.00 0.00 80 1018.7
20260510020003 63 123 0.0 2.0 0.00 0.00 0.00 80 1018.9
20260510015504 63 186 0.0 2.0 0.00 0.00 0.00 80 1018.7
20260510015214 63 191 1.0 3.0 0.00 0.00 0.00 81 1018.4
20260510014503 64 172 1.0 3.0 0.00 0.00 0.00 81 1018.6
20260510014003 64 112 0.0 1.0 0.00 0.00 0.00 79 1018.7
20260510013503 64 155 0.0 1.0 0.00 0.00 0.00 78 1019.3
20260510013216 64 164 0.0 1.0 0.00 0.00 0.00 78 1019.5
20260510012504 64 162 1.0 3.0 0.00 0.00 0.00 75 1019.4
20260510012003 64 146 1.0 3.0 0.00 0.00 0.00 75 1019.7
20260510011504 64 157 1.0 3.0 0.00 0.00 0.00 73 1020.0
20260510011003 64 207 1.0 3.0 0.00 0.00 0.00 72 1019.9
20260510010504 64 325 1.0 2.0 0.00 0.00 0.00 71 1018.8
20260510010004 64 41 0.0 1.0 0.00 0.00 0.00 71 1017.7
20260510005503 64 82 1.0 2.0 0.00 0.00 0.00 71 1017.3
20260510005003 64 90 1.0 2.0 0.00 0.00 0.00 72 1016.9
20260510004717 64 66 1.0 2.0 0.00 0.00 0.00 72 1017.0
20260510004003 64 60 1.0 3.0 0.00 0.00 0.00 73 1016.6
20260510003504 64 80 1.0 4.0 0.00 0.00 0.00 73 1016.6
20260510003004 64 53 1.0 4.0 0.00 0.00 0.00 73 1016.9
20260510002503 64 16 2.0 4.0 0.00 0.00 0.00 73 1017.2
20260510002004 64 28 1.0 4.0 0.00 0.00 0.00 73 1017.3
20260510001504 64 104 1.0 4.0 0.00 0.00 0.00 73 1017.3
20260510001004 64 185 0.0 2.0 0.00 0.00 0.00 73 1017.6
20260510000503 64 201 0.0 1.0 0.00 0.00 0.00 73 1018.3
20260510000214 64 191 0.0 1.0 0.00 0.00 0.00 73 1018.3
20260509235504 64 94 0.0 1.0 0.00 0.00 0.00 73 1018.1
20260509235004 64 91 0.0 2.0 0.00 0.00 0.00 73 1017.8
20260509234504 64 78 0.0 2.0 0.00 0.00 0.00 73 1017.8
20260509234004 64 51 0.0 2.0 0.00 0.00 0.00 74 1017.8
20260509233504 64 63 1.0 3.0 0.00 0.00 0.00 74 1017.6
20260509233217 64 54 1.0 3.0 0.00 0.00 0.00 74 1017.6
20260509232503 64 51 1.0 4.0 0.00 0.00 0.00 74 1017.5
20260509232004 64 78 1.0 4.0 0.00 0.00 0.00 74 1017.4
20260509231504 64 88 1.0 3.0 0.00 0.00 0.00 74 1017.5
20260509230503 64 71 1.0 3.0 0.00 0.00 0.00 74 1017.5
20260509230003 64 68 1.0 3.0 0.00 0.00 0.00 75 1017.5
20260509225504 64 81 1.0 6.0 0.00 0.00 0.00 75 1017.7
20260509225004 64 76 2.0 6.0 0.00 0.00 0.00 75 1017.8
20260509224714 64 68 1.0 6.0 0.00 0.00 0.00 75 1017.8
20260509224003 64 51 1.0 4.0 0.00 0.00 0.00 75 1017.9
20260509223503 64 46 1.0 4.0 0.00 0.00 0.00 75 1017.8
20260509223003 64 56 1.0 3.0 0.00 0.00 0.00 76 1018.0
20260509222504 64 42 1.0 3.0 0.00 0.00 0.00 77 1018.1
20260509222214 64 36 1.0 3.0 0.00 0.00 0.00 77 1018.3
20260509221504 64 52 1.0 4.0 0.00 0.00 0.00 77 1018.5
20260509221003 64 71 1.0 3.0 0.00 0.00 0.00 76 1018.3
20260509220504 64 84 1.0 3.0 0.00 0.00 0.00 76 1018.4
20260509220006 64 84 1.0 3.0 0.00 0.00 0.00 76 1018.5
20260509215714 64 67 1.0 3.0 0.00 0.00 0.00 76 1018.6
20260509215003 64 60 1.0 2.0 0.00 0.00 0.00 77 1018.7
20260509214715 64 80 1.0 3.0 0.00 0.00 0.00 77 1018.7
20260509214004 64 86 1.0 6.0 0.00 0.00 0.00 79 1018.7
20260509213504 64 69 1.0 3.0 0.00 0.00 0.00 79 1018.6
20260509213004 64 59 1.0 6.0 0.00 0.00 0.00 79 1018.9
20260509212503 64 59 2.0 6.0 0.00 0.00 0.00 79 1018.7
20260509212004 64 73 1.0 3.0 0.00 0.00 0.00 79 1018.6
20260509211503 64 91 1.0 4.0 0.00 0.00 0.00 80 1018.6
20260509211004 64 84 1.0 4.0 0.00 0.00 0.00 80 1018.8
20260509210714 64 81 1.0 4.0 0.00 0.00 0.00 80 1018.7
20260509210004 64 86 1.0 6.0 0.00 0.00 0.00 80 1018.5
20260509205503 64 74 1.0 4.0 0.00 0.00 0.00 80 1018.7
20260509205003 64 67 1.0 6.0 0.00 0.00 0.00 80 1018.9
20260509204503 64 77 1.0 6.0 0.00 0.00 0.00 80 1018.5
20260509204003 64 85 1.0 4.0 0.00 0.00 0.00 80 1018.6
20260509203504 64 87 1.0 8.0 0.00 0.00 0.00 81 1018.9
20260509203004 64 88 2.0 8.0 0.00 0.00 0.00 81 1018.8
20260509202718 64 79 2.0 8.0 0.00 0.00 0.00 81 1018.8
20260509202003 64 88 1.0 6.0 0.00 0.00 0.00 81 1018.7
20260509201503 64 91 1.0 4.0 0.00 0.00 0.00 81 1018.9
20260509201003 64 73 2.0 7.0 0.00 0.00 0.00 81 1018.9
20260509200504 64 69 2.0 7.0 0.00 0.00 0.00 81 1018.3
20260509200004 64 65 1.0 6.0 0.00 0.00 0.00 81 1018.7
20260509195503 64 84 1.0 4.0 0.00 0.00 0.00 82 1019.1
20260509195003 64 89 1.0 4.0 0.00 0.00 0.00 83 1019.3
20260509194716 64 91 1.0 4.0 0.00 0.00 0.00 84 1019.2
20260509194003 64 74 1.0 2.0 0.00 0.00 0.00 85 1019.2
20260509193503 64 61 1.0 4.0 0.00 0.00 0.00 85 1019.2
20260509193003 64 57 1.0 4.0 0.00 0.00 0.00 85 1019.2
20260509192503 64 64 1.0 7.0 0.00 0.00 0.00 85 1018.8
20260509192216 64 72 1.0 7.0 0.00 0.00 0.00 85 1018.5
20260509191714 64 114 2.0 7.0 0.00 0.00 0.00 85 1018.5
20260509191004 65 157 2.0 7.0 0.00 0.00 0.00 84 1018.8
20260509190504 65 175 2.0 7.0 0.00 0.00 0.00 83 1018.5
20260509190004 65 71 2.0 6.0 0.00 0.00 0.00 82 1018.5
20260509185503 65 56 3.0 11.0 0.00 0.00 0.00 82 1017.0
20260509185214 65 61 3.0 11.0 0.00 0.00 0.00 83 1016.6
20260509184504 65 60 1.0 4.0 0.00 0.00 0.00 83 1017.5
20260509184003 65 90 1.0 4.0 0.00 0.00 0.00 83 1017.9
20260509183504 65 103 1.0 4.0 0.00 0.00 0.00 83 1018.8
20260509183004 65 184 0.0 0.0 0.00 0.00 0.00 83 1019.2
20260509182503 65 173 0.0 2.0 0.00 0.00 0.00 83 1019.3
20260509182217 65 177 0.0 2.0 0.00 0.00 0.00 82 1019.6
20260509181715 65 156 0.0 1.0 0.00 0.00 0.00 83 1019.4
20260509181004 65 135 1.0 3.0 0.00 0.00 0.00 83 1019.0
20260509180716 65 130 1.0 4.0 0.00 0.00 0.00 83 1019.0
20260509180003 65 96 2.0 8.0 0.00 0.00 0.00 82 1018.9
20260509175503 65 86 2.0 8.0 0.00 0.00 0.00 81 1018.2
20260509175215 65 83 2.0 8.0 0.00 0.00 0.00 80 1018.0
20260509174504 65 80 2.0 6.0 0.00 0.00 0.00 78 1018.0
20260509174004 65 80 2.0 7.0 0.00 0.00 0.00 77 1018.1
20260509173503 65 94 1.0 7.0 0.00 0.00 0.00 77 1018.1
20260509173004 65 87 1.0 4.0 0.00 0.00 0.00 77 1018.2
20260509172503 65 68 1.0 4.0 0.00 0.00 0.00 77 1018.4
20260509172003 66 82 1.0 3.0 0.00 0.00 0.00 77 1018.4
20260509171504 65 75 1.0 3.0 0.00 0.00 0.00 76 1018.5
20260509171004 66 95 2.0 6.0 0.00 0.00 0.00 76 1018.4
20260509170716 66 101 2.0 6.0 0.00 0.00 0.00 76 1018.4
20260509170003 66 86 1.0 4.0 0.00 0.00 0.00 77 1018.3
20260509165503 66 98 2.0 6.0 0.00 0.00 0.00 77 1018.5
20260509165003 66 89 2.0 6.0 0.00 0.00 0.00 77 1018.2
20260509164503 66 75 2.0 7.0 0.00 0.00 0.00 78 1018.0
20260509164216 65 76 2.0 7.0 0.00 0.00 0.00 77 1018.0
20260509163503 65 65 1.0 6.0 0.00 0.00 0.00 77 1017.6
20260509163003 65 94 2.0 4.0 0.00 0.00 0.00 78 1017.9
20260509162504 66 89 2.0 7.0 0.00 0.00 0.00 79 1017.8
20260509162003 66 86 2.0 7.0 0.00 0.00 0.00 80 1017.6
20260509161716 66 88 2.0 4.0 0.00 0.00 0.00 79 1017.5
20260509161003 66 75 2.0 8.0 0.00 0.00 0.00 77 1017.9
20260509160503 66 62 2.0 7.0 0.00 0.00 0.00 79 1018.0
20260509160004 66 56 1.0 7.0 0.00 0.00 0.00 79 1018.0
20260509155504 66 69 1.0 4.0 0.00 0.00 0.00 81 1018.1
20260509155003 65 97 2.0 7.0 0.00 0.00 0.00 80 1018.1
20260509154504 66 95 2.0 7.0 0.00 0.00 0.00 81 1018.0
20260509154003 66 73 2.0 9.0 0.00 0.00 0.00 78 1018.1
20260509153503 66 92 2.0 9.0 0.00 0.00 0.00 80 1018.1
20260509153004 67 112 2.0 8.0 0.00 0.00 0.00 79 1018.2
20260509152504 67 130 2.0 8.0 0.00 0.00 0.00 78 1017.9
20260509152213 67 132 2.0 8.0 0.00 0.00 0.00 79 1018.3
20260509151503 66 91 2.0 8.0 0.00 0.00 0.00 79 1018.0
20260509151003 66 112 3.0 10.0 0.00 0.00 0.00 80 1018.2
20260509150503 67 117 2.0 10.0 0.00 0.00 0.00 78 1018.1
20260509150003 66 112 3.0 10.0 0.00 0.00 0.00 78 1018.0
20260509145503 67 113 3.0 10.0 0.00 0.00 0.00 78 1018.0
20260509145216 67 111 3.0 9.0 0.00 0.00 0.00 78 1017.9
20260509144503 66 95 2.0 6.0 0.00 0.00 0.00 80 1018.1
20260509144003 67 97 3.0 9.0 0.00 0.00 0.00 78 1018.2
20260509143505 67 112 4.0 9.0 0.00 0.00 0.00 79 1018.3
20260509143004 67 118 4.0 10.0 0.00 0.00 0.00 78 1018.4
20260509142504 67 109 3.0 10.0 0.00 0.00 0.00 78 1018.1
20260509142004 67 104 3.0 8.0 0.00 0.00 0.00 78 1018.2
20260509141504 66 114 3.0 8.0 0.00 0.00 0.00 79 1018.4
20260509141004 67 103 2.0 7.0 0.00 0.00 0.00 78 1018.1
20260509140505 67 79 2.0 7.0 0.00 0.00 0.00 78 1018.1
20260509140006 67 80 2.0 6.0 0.00 0.00 0.00 78 1018.2
20260509135505 67 89 2.0 9.0 0.00 0.00 0.00 79 1018.3
20260509135003 67 96 2.0 9.0 0.00 0.00 0.00 79 1018.4
20260509134504 68 110 2.0 6.0 0.00 0.00 0.00 78 1018.3
20260509134004 67 111 3.0 10.0 0.00 0.00 0.00 78 1018.4
20260509133506 67 118 3.0 10.0 0.00 0.00 0.00 78 1018.5
20260509133004 67 114 3.0 8.0 0.00 0.00 0.00 78 1018.2
20260509132505 67 118 3.0 8.0 0.00 0.00 0.00 79 1018.2
20260509132215 68 123 3.0 8.0 0.00 0.00 0.00 77 1018.1
20260509131504 68 139 3.0 9.0 0.00 0.00 0.00 77 1018.3
20260509131004 68 127 2.0 7.0 0.00 0.00 0.00 78 1018.2
20260509130504 68 110 2.0 10.0 0.00 0.00 0.00 78 1018.4
20260509130003 67 88 3.0 10.0 0.00 0.00 0.00 79 1018.4
20260509125504 67 82 3.0 9.0 0.00 0.00 0.00 80 1018.3
20260509125213 67 83 2.0 9.0 0.00 0.00 0.00 80 1018.5
20260509124504 67 98 3.0 8.0 0.00 0.00 0.00 79 1018.4
20260509124003 67 87 3.0 10.0 0.00 0.00 0.00 80 1018.4
20260509123504 67 98 3.0 10.0 0.00 0.00 0.00 79 1018.5
20260509123003 68 133 3.0 9.0 0.00 0.00 0.00 79 1018.5
20260509122504 68 123 3.0 11.0 0.00 0.00 0.00 78 1018.4
20260509122004 68 98 3.0 11.0 0.00 0.00 0.00 78 1018.5
20260509121503 68 99 3.0 9.0 0.00 0.00 0.00 78 1018.2
20260509121005 68 100 3.0 9.0 0.00 0.00 0.00 80 1018.4
20260509120506 68 96 2.0 7.0 0.00 0.00 0.00 79 1018.3
20260509120003 68 92 3.0 10.0 0.00 0.00 0.00 78 1018.3
20260509115505 69 93 3.0 10.0 0.00 0.00 0.00 77 1018.5
20260509115004 68 88 2.0 8.0 0.00 0.00 0.00 78 1018.4
20260509114504 69 92 2.0 11.0 0.00 0.00 0.00 77 1018.3
20260509114004 69 115 3.0 11.0 0.00 0.00 0.00 78 1018.4
20260509113503 70 124 2.0 8.0 0.00 0.00 0.00 76 1018.1
20260509113003 69 107 3.0 7.0 0.00 0.00 0.00 78 1018.2
20260509112504 68 108 3.0 10.0 0.00 0.00 0.00 79 1018.3
20260509112216 69 112 3.0 10.0 0.00 0.00 0.00 78 1018.4
20260509111504 69 100 2.0 7.0 0.00 0.00 0.00 77 1018.4
20260509111004 70 103 2.0 9.0 0.00 0.00 0.00 77 1018.6
20260509110503 69 104 3.0 10.0 0.00 0.00 0.00 76 1018.3
20260509110004 69 107 3.0 10.0 0.00 0.00 0.00 76 1018.5
20260509105505 69 117 3.0 8.0 0.00 0.00 0.00 78 1018.6
20260509105004 70 110 3.0 8.0 0.00 0.00 0.00 76 1018.4
20260509104503 69 106 2.0 5.0 0.00 0.00 0.00 78 1018.4
20260509104004 70 119 3.0 8.0 0.00 0.00 0.00 77 1018.2